owner,sensor,date,latitude,longitude,vertical_datum,direction_of_sea_water_velocity,sea_water_speed,upward_sea_water_velocity,qcFlag 
ADCP,ioos:station:wmo:42372:1,2016-12-01T00:20:00Z,27.7800,-90.5180,32.0,239.0,19.8,-3.4,'1111122,1111122,1111122' 
ADCP,ioos:station:wmo:42372:1,2016-12-01T00:50:00Z,27.7800,-90.5180,32.0,240.0,22.5,-3.1,'1111122,1111122,1111122' 
ADCP,ioos:station:wmo:42372:1,2016-12-01T01:50:00Z,27.7800,-90.5180,32.1,240.0,19.7,-3.0,'1111122,1111122,1111122' 
ADCP,ioos:station:wmo:42372:1,2016-12-01T03:20:00Z,27.7800,-90.5180,32.0,248.0,18.8,-2.6,'1111122,1111122,1111122' 
ADCP,ioos:station:wmo:42372:1,2016-12-01T04:20:00Z,27.7800,-90.5180,32.1,252.0,20.6,-1.8,'1111122,1111122,1111122' 
ADCP,ioos:station:wmo:42372:1,2016-12-01T05:20:00Z,27.7800,-90.5180,32.0,261.0,20.9,-2.0,'1111122,1111122,1111122' 
ADCP,ioos:station:wmo:42372:1,2016-12-01T06:20:00Z,27.7800,-90.5180,32.1,266.0,18.1,-1.8,'1111122,1111122,1111122' 
ADCP,ioos:station:wmo:42372:1,2016-12-01T07:20:00Z,27.7800,-90.5180,31.9,273.0,19.2,-3.9,'1111122,1111122,1111122' 
ADCP,ioos:station:wmo:42372:1,2016-12-01T08:20:00Z,27.7800,-90.5180,32.1,272.0,18.6,-2.5,'1111122,1111122,1111122' 
ADCP,ioos:station:wmo:42372:1,2016-12-01T09:20:00Z,27.7800,-90.5180,32.1,256.0,16.5,-2.3,'1111122,1111122,1111122' 
ADCP,ioos:station:wmo:42372:1,2016-12-01T10:20:00Z,27.7800,-90.5180,31.8,274.0,15.3,-2.0,'1111122,1111122,1111122' 
ADCP,ioos:station:wmo:42372:1,2016-12-01T11:20:00Z,27.7800,-90.5180,32.1,263.0,9.7,-1.5,'1111122,1111122,1111122' 
ADCP,ioos:station:wmo:42372:1,2016-12-01T14:20:00Z,27.7800,-90.5180,32.0,283.0,8.7,-2.8,'1111122,1111122,1111122' 
ADCP,ioos:station:wmo:42372:1,2016-12-01T15:20:00Z,27.7800,-90.5180,32.0,259.0,9.9,-2.0,'1111122,1111122,1111122' 
ADCP,ioos:station:wmo:42372:1,2016-12-01T16:20:00Z,27.7800,-90.5180,31.9,263.0,12.3,-2.7,'1111122,1111122,1111122' 
ADCP,ioos:station:wmo:42372:1,2016-12-01T17:21:00Z,27.7800,-90.5180,32.0,243.0,10.9,-0.9,'1111122,1111122,1111122' 
ADCP,ioos:station:wmo:42372:1,2016-12-01T17:51:00Z,27.7800,-90.5180,32.0,247.0,12.8,-2.8,'1111122,1111122,1111122' 
ADCP,ioos:station:wmo:42372:1,2016-12-01T18:51:00Z,27.7800,-90.5180,32.0,234.0,16.9,-1.2,'1111122,1111122,1111122' 
ADCP,ioos:station:wmo:42372:1,2016-12-01T20:21:00Z,27.7800,-90.5180,32.1,230.0,12.6,-0.2,'1111122,1111122,1111122' 
ADCP,ioos:station:wmo:42372:1,2016-12-01T21:21:00Z,27.7800,-90.5180,32.0,229.0,16.0,-0.7,'1111122,1111122,1111122' 
ADCP,ioos:station:wmo:42372:1,2016-12-01T23:21:00Z,27.7800,-90.5180,32.0,217.0,17.3,1.5,'1111122,1111122,1111122' 
ADCP,ioos:station:wmo:42372:1,2016-12-01T23:51:00Z,27.7800,-90.5180,31.9,217.0,16.0,1.3,'1111122,1111122,1111122' 
ADCP,ioos:station:wmo:42372:1,2016-12-02T00:51:00Z,27.7800,-90.5180,32.1,212.0,15.5,1.4,'1111122,1111122,1111122' 
ADCP,ioos:station:wmo:42372:1,2016-12-02T02:51:00Z,27.7800,-90.5180,32.1,227.0,17.3,0.9,'1111122,1111122,1111122' 
ADCP,ioos:station:wmo:42372:1,2016-12-02T04:21:00Z,27.7800,-90.5180,31.9,242.0,13.2,0.1,'1111122,1111122,1111122' 
ADCP,ioos:station:wmo:42372:1,2016-12-02T06:21:00Z,27.7800,-90.5180,31.8,264.0,12.2,0.2,'1111122,1111122,1111122' 
ADCP,ioos:station:wmo:42372:1,2016-12-02T07:21:00Z,27.7800,-90.5180,31.7,264.0,9.3,1.0,'1111122,1111122,1111122' 
ADCP,ioos:station:wmo:42372:1,2016-12-02T08:21:00Z,27.7800,-90.5180,32.0,269.0,6.8,-0.3,'1111122,1111122,1111122' 
ADCP,ioos:station:wmo:42372:1,2016-12-02T09:21:00Z,27.7800,-90.5180,31.9,276.0,6.8,0.1,'1111122,1111122,1111122' 
ADCP,ioos:station:wmo:42372:1,2016-12-02T10:21:00Z,27.7800,-90.5180,31.6,284.0,6.6,0.8,'1111122,1111122,1111122' 
ADCP,ioos:station:wmo:42372:1,2016-12-02T10:52:00Z,27.7800,-90.5180,31.7,260.0,4.7,0.4,'1111122,1111122,1111122' 
ADCP,ioos:station:wmo:42372:1,2016-12-02T11:42:00Z,27.7800,-90.5180,31.9,258.0,5.2,1.3,'1111122,1111122,1111122' 
ADCP,ioos:station:wmo:42372:1,2016-12-02T12:52:00Z,27.7800,-90.5180,31.8,221.0,6.5,0.7,'1111122,1111122,1111122' 
ADCP,ioos:station:wmo:42372:1,2016-12-02T13:52:00Z,27.7800,-90.5180,31.9,224.0,5.3,-0.1,'1111122,1111122,1111122' 
ADCP,ioos:station:wmo:42372:1,2016-12-02T14:52:00Z,27.7800,-90.5180,32.0,215.0,8.6,0.0,'1111122,1111122,1114422' 
ADCP,ioos:station:wmo:42372:1,2016-12-02T16:52:00Z,27.7800,-90.5180,31.8,238.0,4.5,0.2,'1111122,1111122,1111122' 
ADCP,ioos:station:wmo:42372:1,2016-12-02T19:02:00Z,27.7800,-90.5180,31.9,212.0,6.8,1.0,'1111122,1111122,1111122' 
ADCP,ioos:station:wmo:42372:1,2016-12-02T19:52:00Z,27.7800,-90.5180,31.8,222.0,7.1,1.5,'1111122,1111122,1111122' 
ADCP,ioos:station:wmo:42372:1,2016-12-02T20:52:00Z,27.7800,-90.5180,31.8,236.0,9.7,0.8,'1111122,1111122,1111122' 
ADCP,ioos:station:wmo:42372:1,2016-12-02T23:52:00Z,27.7800,-90.5180,31.9,190.0,9.3,2.9,'1111122,1111122,1111122' 
ADCP,ioos:station:wmo:42372:1,2016-12-03T00:52:00Z,27.7800,-90.5180,31.8,190.0,7.4,1.5,'1111122,1111122,1111122' 
ADCP,ioos:station:wmo:42372:1,2016-12-03T01:52:00Z,27.7800,-90.5180,31.9,212.0,7.1,2.1,'1111122,1111122,1111122' 
ADCP,ioos:station:wmo:42372:1,2016-12-03T03:12:00Z,27.7800,-90.5180,31.9,220.0,4.8,-0.3,'1111122,1111122,1111122' 
ADCP,ioos:station:wmo:42372:1,2016-12-03T05:23:00Z,27.7800,-90.5180,31.9,249.0,5.1,-0.1,'1111122,1111122,1111122' 
ADCP,ioos:station:wmo:42372:1,2016-12-03T06:23:00Z,27.7800,-90.5180,32.0,342.0,1.3,0.2,'1111122,1111122,1111122' 
ADCP,ioos:station:wmo:42372:1,2016-12-03T07:53:00Z,27.7800,-90.5180,32.1,29.0,8.5,-2.7,'1111122,1111122,1111122' 
ADCP,ioos:station:wmo:42372:1,2016-12-03T09:23:00Z,27.7800,-90.5180,31.7,87.0,4.5,-0.1,'1111122,1111122,1111122' 
ADCP,ioos:station:wmo:42372:1,2016-12-03T10:23:00Z,27.7800,-90.5180,31.9,55.0,3.3,-0.4,'1111122,1111122,1111122' 
ADCP,ioos:station:wmo:42372:1,2016-12-03T11:23:00Z,27.7800,-90.5180,31.7,103.0,7.2,1.9,'1111122,1111122,1111122' 
ADCP,ioos:station:wmo:42372:1,2016-12-03T11:53:00Z,27.7800,-90.5180,31.6,94.0,7.9,1.6,'1111122,1111122,1111122' 
ADCP,ioos:station:wmo:42372:1,2016-12-03T12:53:00Z,27.7800,-90.5180,31.8,87.0,12.5,2.0,'1111122,1111122,1111122' 
ADCP,ioos:station:wmo:42372:1,2016-12-03T13:53:00Z,27.7800,-90.5180,31.7,101.0,12.8,2.9,'1111122,1111122,1111122' 
ADCP,ioos:station:wmo:42372:1,2016-12-03T16:23:00Z,27.7800,-90.5180,31.7,74.0,10.6,-0.7,'1111122,1111122,1111122' 
ADCP,ioos:station:wmo:42372:1,2016-12-03T17:23:00Z,27.7800,-90.5180,31.9,129.0,10.9,3.1,'1111122,1111122,1111122' 
ADCP,ioos:station:wmo:42372:1,2016-12-03T18:23:00Z,27.7800,-90.5180,31.6,127.0,8.1,3.0,'1111122,1111122,1111122' 
ADCP,ioos:station:wmo:42372:1,2016-12-03T19:23:00Z,27.7800,-90.5180,31.6,199.0,4.3,2.5,'1111122,1111122,1111122' 
ADCP,ioos:station:wmo:42372:1,2016-12-03T20:23:00Z,27.7800,-90.5180,31.6,120.0,9.5,1.9,'1111122,1111122,1111122' 
ADCP,ioos:station:wmo:42372:1,2016-12-03T21:24:00Z,27.7800,-90.5180,31.6,122.0,13.1,1.0,'1111122,1111122,1111122' 
ADCP,ioos:station:wmo:42372:1,2016-12-03T21:54:00Z,27.7800,-90.5180,31.8,111.0,6.5,-0.9,'1111122,1111122,1111122' 
ADCP,ioos:station:wmo:42372:1,2016-12-03T23:24:00Z,27.7800,-90.5180,31.7,176.0,6.0,0.5,'1111122,1111122,1111122' 
ADCP,ioos:station:wmo:42372:1,2016-12-04T00:24:00Z,27.7800,-90.5180,31.8,129.0,9.4,2.3,'1111122,1111122,1111122' 
ADCP,ioos:station:wmo:42372:1,2016-12-04T00:54:00Z,27.7800,-90.5180,32.0,126.0,14.4,1.8,'1111122,1111122,1111122' 
ADCP,ioos:station:wmo:42372:1,2016-12-04T02:24:00Z,27.7800,-90.5180,31.8,143.0,3.8,-1.0,'1111122,1111122,1111122' 
ADCP,ioos:station:wmo:42372:1,2016-12-04T03:24:00Z,27.7800,-90.5180,31.9,318.0,2.5,-1.5,'1111122,1111122,1111122' 
ADCP,ioos:station:wmo:42372:1,2016-12-04T04:24:00Z,27.7800,-90.5180,31.8,24.0,2.4,-0.9,'1111122,1111122,1111122' 
ADCP,ioos:station:wmo:42372:1,2016-12-04T05:24:00Z,27.7800,-90.5180,31.8,334.0,3.7,-1.7,'1111122,1111122,1111122' 
ADCP,ioos:station:wmo:42372:1,2016-12-04T06:24:00Z,27.7800,-90.5180,31.4,17.0,5.3,-2.4,'1111122,1111122,1111122' 
ADCP,ioos:station:wmo:42372:1,2016-12-04T07:24:00Z,27.7800,-90.5180,31.5,16.0,4.6,-1.7,'1111122,1111122,1111122' 
ADCP,ioos:station:wmo:42372:1,2016-12-04T08:24:00Z,27.7800,-90.5180,31.8,30.0,2.0,-0.1,'1111122,1111122,1111122' 
ADCP,ioos:station:wmo:42372:1,2016-12-04T09:24:00Z,27.7800,-90.5180,31.8,101.0,4.8,1.1,'1111122,1111122,1111122' 
ADCP,ioos:station:wmo:42372:1,2016-12-04T10:24:00Z,27.7800,-90.5180,31.7,95.0,7.4,1.6,'1111122,1111122,1111122' 
ADCP,ioos:station:wmo:42372:1,2016-12-04T11:24:00Z,27.7800,-90.5180,31.8,86.0,11.7,1.3,'1111122,1111122,1111122' 
ADCP,ioos:station:wmo:42372:1,2016-12-04T14:25:00Z,27.7800,-90.5180,31.6,81.0,20.6,-1.8,'1111122,1111122,1111122' 
ADCP,ioos:station:wmo:42372:1,2016-12-04T15:25:00Z,27.7800,-90.5180,31.8,90.0,13.2,-1.5,'1111122,1111122,1111122' 
ADCP,ioos:station:wmo:42372:1,2016-12-04T16:25:00Z,27.7800,-90.5180,31.8,87.0,14.7,-3.4,'1111122,1111122,1111122' 
ADCP,ioos:station:wmo:42372:1,2016-12-04T16:55:00Z,27.7800,-90.5180,31.9,91.0,16.2,-3.5,'1111122,1111122,1111122' 
ADCP,ioos:station:wmo:42372:1,2016-12-04T18:25:00Z,27.7800,-90.5180,32.0,89.0,9.8,-7.7,'1111122,1111122,1111122' 
ADCP,ioos:station:wmo:42372:1,2016-12-04T19:25:00Z,27.7800,-90.5180,32.1,129.0,10.6,-0.4,'1111122,1111122,1111122' 
ADCP,ioos:station:wmo:42372:1,2016-12-04T19:55:00Z,27.7800,-90.5180,32.1,146.0,12.4,-0.2,'1111122,1111122,1111122' 
ADCP,ioos:station:wmo:42372:1,2016-12-04T21:15:00Z,27.7800,-90.5180,32.0,162.0,12.0,1.2,'1111122,1111122,1111122' 
ADCP,ioos:station:wmo:42372:1,2016-12-04T22:15:00Z,27.7800,-90.5180,32.2,76.0,8.9,-2.9,'1111122,1111122,1111122' 
ADCP,ioos:station:wmo:42372:1,2016-12-04T23:15:00Z,27.7800,-90.5180,32.1,50.0,3.5,-4.3,'1111122,1111122,1111122' 
ADCP,ioos:station:wmo:42372:1,2016-12-05T00:15:00Z,27.7800,-90.5180,32.1,148.0,6.8,0.2,'1111122,1111122,1111122' 
ADCP,ioos:station:wmo:42372:1,2016-12-05T00:45:00Z,27.7800,-90.5180,32.2,166.0,10.2,1.3,'1111122,1111122,1111122' 
ADCP,ioos:station:wmo:42372:1,2016-12-05T01:45:00Z,27.7800,-90.5180,32.2,77.0,17.3,-5.2,'1111122,1111122,1111122' 
ADCP,ioos:station:wmo:42372:1,2016-12-05T03:15:00Z,27.7800,-90.5180,32.2,73.0,17.5,-3.5,'1111122,1111122,1111122' 
ADCP,ioos:station:wmo:42372:1,2016-12-05T04:15:00Z,27.7800,-90.5180,32.0,74.0,12.3,-3.1,'1111122,1111122,1111122' 
ADCP,ioos:station:wmo:42372:1,2016-12-05T05:15:00Z,27.7800,-90.5180,32.0,48.0,11.0,-1.8,'1111122,1111122,1111122' 
ADCP,ioos:station:wmo:42372:1,2016-12-05T06:15:00Z,27.7800,-90.5180,32.0,73.0,5.9,-2.2,'1111122,1111122,1111122' 
ADCP,ioos:station:wmo:42372:1,2016-12-05T06:45:00Z,27.7800,-90.5180,32.0,29.0,5.6,-2.7,'1111122,1111122,1111122' 
ADCP,ioos:station:wmo:42372:1,2016-12-05T08:16:00Z,27.7800,-90.5180,31.9,353.0,6.4,-2.4,'1111122,1111122,1111122' 
ADCP,ioos:station:wmo:42372:1,2016-12-05T08:46:00Z,27.7800,-90.5180,32.0,355.0,6.3,-2.4,'1111122,1111122,1111122' 
ADCP,ioos:station:wmo:42372:1,2016-12-05T10:16:00Z,27.7800,-90.5180,32.0,359.0,8.2,-2.9,'1111122,1111122,1111122' 
ADCP,ioos:station:wmo:42372:1,2016-12-05T11:06:00Z,27.7800,-90.5180,31.7,1.0,7.3,-2.7,'1111122,1111122,1111122' 
ADCP,ioos:station:wmo:42372:1,2016-12-05T11:46:00Z,27.7800,-90.5180,31.9,22.0,6.1,-1.3,'1111122,1111122,1111122' 
ADCP,ioos:station:wmo:42372:1,2016-12-05T12:46:00Z,27.7800,-90.5180,32.1,47.0,7.9,-1.5,'1111122,1111122,1111122' 
ADCP,ioos:station:wmo:42372:1,2016-12-05T14:46:00Z,27.7800,-90.5180,32.0,62.0,12.0,-2.7,'1111122,1111122,1111122' 
ADCP,ioos:station:wmo:42372:1,2016-12-05T15:46:00Z,27.7800,-90.5180,32.0,75.0,17.2,-1.9,'1111122,1111122,1111122' 
ADCP,ioos:station:wmo:42372:1,2016-12-05T23:16:00Z,27.7800,-90.5180,32.0,86.0,15.9,-3.2,'1111122,1111122,1111122' 
ADCP,ioos:station:wmo:42372:1,2016-12-06T00:16:00Z,27.7800,-90.5180,32.1,84.0,14.7,-2.5,'1111122,1111122,1111122' 
ADCP,ioos:station:wmo:42372:1,2016-12-06T01:17:00Z,27.7800,-90.5180,32.0,69.0,20.2,-7.2,'1111122,1111122,1111122' 
ADCP,ioos:station:wmo:42372:1,2016-12-06T02:17:00Z,27.7800,-90.5180,32.2,79.0,21.7,-6.6,'1111122,1111122,1111122' 
ADCP,ioos:station:wmo:42372:1,2016-12-06T02:47:00Z,27.7800,-90.5180,32.0,106.0,16.6,-3.9,'1111122,1111122,1111122' 
ADCP,ioos:station:wmo:42372:1,2016-12-06T04:17:00Z,27.7800,-90.5180,32.1,156.0,23.0,-2.9,'1111122,1111122,1111122' 
ADCP,ioos:station:wmo:42372:1,2016-12-06T06:17:00Z,27.7800,-90.5180,32.2,126.0,10.0,-1.0,'1111122,1111122,1111122' 
ADCP,ioos:station:wmo:42372:1,2016-12-06T08:17:00Z,27.7800,-90.5180,32.0,75.0,6.7,-2.2,'1111122,1111122,1111122' 
ADCP,ioos:station:wmo:42372:1,2016-12-06T09:17:00Z,27.7800,-90.5180,31.9,98.0,9.5,0.2,'1111122,1111122,1111122' 
ADCP,ioos:station:wmo:42372:1,2016-12-06T10:17:00Z,27.7800,-90.5180,32.0,76.0,10.7,-0.8,'1111122,1111122,1111122' 
ADCP,ioos:station:wmo:42372:1,2016-12-06T11:17:00Z,27.7800,-90.5180,32.2,96.0,6.4,0.3,'1111122,1111122,1111122' 
ADCP,ioos:station:wmo:42372:1,2016-12-06T11:47:00Z,27.7800,-90.5180,32.0,97.0,7.4,1.4,'1111122,1111122,1111122' 
ADCP,ioos:station:wmo:42372:1,2016-12-06T12:47:00Z,27.7800,-90.5180,31.9,105.0,14.3,0.7,'1111122,1111122,1111122' 
ADCP,ioos:station:wmo:42372:1,2016-12-06T13:47:00Z,27.7800,-90.5180,32.1,91.0,12.7,-0.9,'1111122,1111122,1111122' 
ADCP,ioos:station:wmo:42372:1,2016-12-06T14:47:00Z,27.7800,-90.5180,31.9,108.0,6.7,-0.4,'1111122,1111122,1111122' 
ADCP,ioos:station:wmo:42372:1,2016-12-06T16:07:00Z,27.7800,-90.5180,31.8,72.0,4.3,-1.1,'1111122,1111122,1111122' 
ADCP,ioos:station:wmo:42372:1,2016-12-06T16:37:00Z,27.7800,-90.5180,32.0,106.0,7.0,0.1,'1111122,1111122,1111122' 
ADCP,ioos:station:wmo:42372:1,2016-12-06T17:17:00Z,27.7800,-90.5180,31.8,104.0,5.4,-0.3,'1111122,1111122,1111122' 
ADCP,ioos:station:wmo:42372:1,2016-12-06T18:48:00Z,27.7800,-90.5180,31.8,88.0,10.7,-0.9,'1111122,1111122,1111122' 
ADCP,ioos:station:wmo:42372:1,2016-12-06T20:18:00Z,27.7800,-90.5180,31.9,68.0,10.0,-1.4,'1111122,1111122,1111122' 
ADCP,ioos:station:wmo:42372:1,2016-12-06T20:48:00Z,27.7800,-90.5180,31.9,84.0,9.5,-1.0,'1111122,1111122,1111122' 
ADCP,ioos:station:wmo:42372:1,2016-12-06T21:48:00Z,27.7800,-90.5180,31.8,73.0,9.0,-0.7,'1111122,1111122,1111122' 
ADCP,ioos:station:wmo:42372:1,2016-12-06T23:18:00Z,27.7800,-90.5180,32.0,78.0,6.3,-0.1,'1111122,1111122,1111122' 
ADCP,ioos:station:wmo:42372:1,2016-12-07T00:18:00Z,27.7800,-90.5180,31.9,64.0,9.0,-0.2,'1111122,1111122,1111122' 
ADCP,ioos:station:wmo:42372:1,2016-12-07T02:48:00Z,27.7800,-90.5180,32.2,75.0,14.2,-1.3,'1111122,1111122,1111122' 
ADCP,ioos:station:wmo:42372:1,2016-12-07T04:18:00Z,27.7800,-90.5180,31.9,92.0,10.6,-0.7,'1111122,1111122,1111122' 
ADCP,ioos:station:wmo:42372:1,2016-12-07T05:08:00Z,27.7800,-90.5180,32.1,89.0,13.9,-1.4,'1111122,1111122,1111122' 
ADCP,ioos:station:wmo:42372:1,2016-12-07T06:18:00Z,27.7800,-90.5180,32.1,99.0,10.0,-0.7,'1111122,1111122,1111122' 
ADCP,ioos:station:wmo:42372:1,2016-12-07T08:18:00Z,27.7800,-90.5180,32.0,92.0,10.0,-0.3,'1111122,1111122,1111122' 
ADCP,ioos:station:wmo:42372:1,2016-12-07T09:18:00Z,27.7800,-90.5180,32.3,88.0,13.9,-1.6,'1111122,1111122,1111122' 
ADCP,ioos:station:wmo:42372:1,2016-12-07T10:18:00Z,27.7800,-90.5180,32.2,86.0,7.4,-1.1,'1111122,1111122,1111122' 
ADCP,ioos:station:wmo:42372:1,2016-12-07T11:18:00Z,27.7800,-90.5180,32.0,85.0,9.8,-1.0,'1111122,1111122,1111122' 
ADCP,ioos:station:wmo:42372:1,2016-12-07T11:49:00Z,27.7800,-90.5180,32.2,71.0,9.6,-1.9,'1111122,1111122,1111122' 
ADCP,ioos:station:wmo:42372:1,2016-12-07T12:49:00Z,27.7800,-90.5180,31.9,72.0,10.0,-0.3,'1111122,1111122,1111122' 
ADCP,ioos:station:wmo:42372:1,2016-12-07T13:49:00Z,27.7800,-90.5180,32.0,76.0,10.3,-0.6,'1111122,1111122,1111122' 
ADCP,ioos:station:wmo:42372:1,2016-12-07T14:49:00Z,27.7800,-90.5180,32.0,74.0,9.2,-0.5,'1111122,1111122,1111122' 
ADCP,ioos:station:wmo:42372:1,2016-12-07T15:49:00Z,27.7800,-90.5180,32.0,70.0,9.3,-0.7,'1111122,1111122,1111122' 
ADCP,ioos:station:wmo:42372:1,2016-12-07T16:49:00Z,27.7800,-90.5180,32.0,58.0,11.0,-1.3,'1111122,1111122,1111122' 
ADCP,ioos:station:wmo:42372:1,2016-12-07T18:19:00Z,27.7800,-90.5180,32.1,62.0,13.1,-2.4,'1111122,1111122,1111122' 
ADCP,ioos:station:wmo:42372:1,2016-12-07T18:49:00Z,27.7800,-90.5180,31.9,63.0,11.2,-2.1,'1111122,1111122,1111122' 
ADCP,ioos:station:wmo:42372:1,2016-12-07T20:19:00Z,27.7800,-90.5180,32.2,69.0,11.7,-2.2,'1111122,1111122,1111122' 
ADCP,ioos:station:wmo:42372:1,2016-12-07T21:19:00Z,27.7800,-90.5180,32.0,68.0,12.9,-2.5,'1111122,1111122,1111122' 
ADCP,ioos:station:wmo:42372:1,2016-12-07T21:49:00Z,27.7800,-90.5180,32.0,67.0,10.7,-2.4,'1111122,1111122,1111122' 
ADCP,ioos:station:wmo:42372:1,2016-12-07T23:19:00Z,27.7800,-90.5180,32.1,45.0,9.5,-1.5,'1111122,1111122,1111122' 
ADCP,ioos:station:wmo:42372:1,2016-12-08T00:19:00Z,27.7800,-90.5180,32.1,56.0,10.7,-2.1,'1111122,1111122,1111122' 
ADCP,ioos:station:wmo:42372:1,2016-12-08T01:19:00Z,27.7800,-90.5180,32.1,55.0,9.3,-1.2,'1111122,1111122,1111122' 
ADCP,ioos:station:wmo:42372:1,2016-12-08T01:49:00Z,27.7800,-90.5180,32.1,56.0,10.2,-1.5,'1111122,1111122,1111122' 
ADCP,ioos:station:wmo:42372:1,2016-12-08T03:19:00Z,27.7800,-90.5180,32.2,62.0,6.1,-1.0,'1111122,1111122,1111122' 
ADCP,ioos:station:wmo:42372:1,2016-12-08T04:19:00Z,27.7800,-90.5180,32.2,61.0,10.4,-1.2,'1111122,1111122,1111122' 
ADCP,ioos:station:wmo:42372:1,2016-12-08T05:20:00Z,27.7800,-90.5180,32.3,77.0,6.1,-0.6,'1111122,1111122,1111122' 
ADCP,ioos:station:wmo:42372:1,2016-12-08T06:20:00Z,27.7800,-90.5180,32.2,47.0,6.9,-1.1,'1111122,1111122,1111122' 
ADCP,ioos:station:wmo:42372:1,2016-12-08T07:20:00Z,27.7800,-90.5180,32.1,62.0,7.8,-0.9,'1111122,1111122,1111122' 
ADCP,ioos:station:wmo:42372:1,2016-12-08T08:20:00Z,27.7800,-90.5180,32.0,62.0,4.4,-1.1,'1111122,1111122,1111122' 
ADCP,ioos:station:wmo:42372:1,2016-12-08T09:20:00Z,27.7800,-90.5180,32.2,25.0,3.3,-1.0,'1111122,1111122,1111122' 
ADCP,ioos:station:wmo:42372:1,2016-12-08T10:20:00Z,27.7800,-90.5180,32.0,9.0,4.9,-1.4,'1111122,1111122,1111122' 
ADCP,ioos:station:wmo:42372:1,2016-12-08T11:20:00Z,27.7800,-90.5180,32.2,58.0,3.9,-0.6,'1111122,1111122,1111122' 
ADCP,ioos:station:wmo:42372:1,2016-12-08T12:20:00Z,27.7800,-90.5180,32.0,35.0,3.5,0.1,'1111122,1111122,1111122' 
ADCP,ioos:station:wmo:42372:1,2016-12-08T14:00:00Z,27.7800,-90.5180,32.0,22.0,4.5,-0.9,'1111122,1111122,1111122' 
ADCP,ioos:station:wmo:42372:1,2016-12-08T14:50:00Z,27.7800,-90.5180,32.1,73.0,6.8,1.1,'1111122,1111122,1111122' 
ADCP,ioos:station:wmo:42372:1,2016-12-08T15:50:00Z,27.7800,-90.5180,32.0,33.0,9.1,-0.1,'1111122,1111122,1111122' 
ADCP,ioos:station:wmo:42372:1,2016-12-08T16:20:00Z,27.7800,-90.5180,31.9,69.0,3.6,-0.3,'1111122,1111122,1111122' 
ADCP,ioos:station:wmo:42372:1,2016-12-08T18:50:00Z,27.7800,-90.5180,32.0,84.0,8.1,-0.5,'1111122,1111122,1111122' 
ADCP,ioos:station:wmo:42372:1,2016-12-08T20:20:00Z,27.7800,-90.5180,32.2,36.0,5.9,-1.3,'1111122,1111122,1111122' 
ADCP,ioos:station:wmo:42372:1,2016-12-08T21:20:00Z,27.7800,-90.5180,32.0,37.0,4.4,-1.6,'1111122,1111122,1111122' 
ADCP,ioos:station:wmo:42372:1,2016-12-08T21:50:00Z,27.7800,-90.5180,32.1,341.0,3.6,-1.8,'1111122,1111122,1111122' 
ADCP,ioos:station:wmo:42372:1,2016-12-08T23:21:00Z,27.7800,-90.5180,32.0,346.0,3.3,-0.4,'1111122,1111122,1111122' 
ADCP,ioos:station:wmo:42372:1,2016-12-09T00:21:00Z,27.7800,-90.5180,32.0,312.0,4.7,-1.2,'1111122,1111122,1111122' 
ADCP,ioos:station:wmo:42372:1,2016-12-09T00:51:00Z,27.7800,-90.5180,32.1,325.0,4.5,-0.7,'1111122,1111122,1111122' 
ADCP,ioos:station:wmo:42372:1,2016-12-09T03:21:00Z,27.7800,-90.5180,32.1,5.0,4.5,-3.2,'1111122,1111122,1111122' 
ADCP,ioos:station:wmo:42372:1,2016-12-09T04:21:00Z,27.7800,-90.5180,32.0,359.0,8.6,-2.8,'1111122,1111122,1111122' 
ADCP,ioos:station:wmo:42372:1,2016-12-09T04:51:00Z,27.7800,-90.5180,32.0,327.0,4.2,-2.5,'1111122,1111122,1111122' 
ADCP,ioos:station:wmo:42372:1,2016-12-09T06:21:00Z,27.7800,-90.5180,31.9,40.0,8.4,-3.1,'1111122,1111122,1111122' 
ADCP,ioos:station:wmo:42372:1,2016-12-09T06:51:00Z,27.7800,-90.5180,31.9,25.0,13.9,-2.5,'1111122,1111122,1111122' 
ADCP,ioos:station:wmo:42372:1,2016-12-09T08:21:00Z,27.7800,-90.5180,31.9,47.0,8.5,-1.7,'1111122,1111122,1111122' 
ADCP,ioos:station:wmo:42372:1,2016-12-09T10:21:00Z,27.7800,-90.5180,32.1,45.0,12.2,0.7,'1111122,1111122,1111122' 
ADCP,ioos:station:wmo:42372:1,2016-12-09T11:21:00Z,27.7800,-90.5180,31.9,49.0,9.1,0.9,'1111122,1111122,1111122' 
ADCP,ioos:station:wmo:42372:1,2016-12-09T12:21:00Z,27.7800,-90.5180,31.9,71.0,9.0,-0.7,'1111122,1111122,1111122' 
ADCP,ioos:station:wmo:42372:1,2016-12-09T13:11:00Z,27.7800,-90.5180,32.0,54.0,19.0,-3.0,'1111122,1111122,1111122' 
ADCP,ioos:station:wmo:42372:1,2016-12-09T14:01:00Z,27.7800,-90.5180,31.9,59.0,20.6,-1.3,'1111122,1111122,1111122' 
ADCP,ioos:station:wmo:42372:1,2016-12-09T15:11:00Z,27.7800,-90.5180,32.0,65.0,20.9,-2.5,'1111122,1111122,1111122' 
ADCP,ioos:station:wmo:42372:1,2016-12-09T17:22:00Z,27.7800,-90.5180,32.1,69.0,19.9,-0.9,'1111122,1111122,1111122' 
ADCP,ioos:station:wmo:42372:1,2016-12-09T18:22:00Z,27.7800,-90.5180,31.9,79.0,16.4,-1.1,'1111122,1111122,1111122' 
ADCP,ioos:station:wmo:42372:1,2016-12-09T19:22:00Z,27.7800,-90.5180,31.8,96.0,16.4,-0.3,'1111122,1111122,1111122' 
ADCP,ioos:station:wmo:42372:1,2016-12-09T20:22:00Z,27.7800,-90.5180,31.9,94.0,11.9,-0.4,'1111122,1111122,1111122' 
ADCP,ioos:station:wmo:42372:1,2016-12-09T21:22:00Z,27.7800,-90.5180,32.0,91.0,15.0,0.7,'1111122,1111122,1111122' 
ADCP,ioos:station:wmo:42372:1,2016-12-09T22:22:00Z,27.7800,-90.5180,31.9,101.0,11.4,0.1,'1111122,1111122,1111122' 
ADCP,ioos:station:wmo:42372:1,2016-12-09T22:52:00Z,27.7800,-90.5180,32.1,90.0,8.4,0.8,'1111122,1111122,1111122' 
ADCP,ioos:station:wmo:42372:1,2016-12-10T00:22:00Z,27.7800,-90.5180,32.0,54.0,6.4,-1.2,'1111122,1111122,1111122' 
ADCP,ioos:station:wmo:42372:1,2016-12-10T01:22:00Z,27.7800,-90.5180,32.0,46.0,7.4,-1.1,'1111122,1111122,1111122' 
ADCP,ioos:station:wmo:42372:1,2016-12-10T01:52:00Z,27.7800,-90.5180,32.0,60.0,6.1,-0.4,'1111122,1111122,1111122' 
ADCP,ioos:station:wmo:42372:1,2016-12-10T03:22:00Z,27.7800,-90.5180,32.0,56.0,3.4,-0.6,'1111122,1111122,1111122' 
ADCP,ioos:station:wmo:42372:1,2016-12-10T04:22:00Z,27.7800,-90.5180,31.9,32.0,6.7,-0.4,'1111122,1111122,1111122' 
ADCP,ioos:station:wmo:42372:1,2016-12-10T06:22:00Z,27.7800,-90.5180,31.8,30.0,5.9,-0.7,'1111122,1111122,1111122' 
ADCP,ioos:station:wmo:42372:1,2016-12-10T07:22:00Z,27.7800,-90.5180,31.7,73.0,10.8,0.0,'1111122,1111122,1114422' 
ADCP,ioos:station:wmo:42372:1,2016-12-10T08:22:00Z,27.7800,-90.5180,31.8,65.0,9.3,-0.9,'1111122,1111122,1111122' 
ADCP,ioos:station:wmo:42372:1,2016-12-10T10:23:00Z,27.7800,-90.5180,31.9,63.0,9.1,-0.1,'1111122,1111122,1111122' 
ADCP,ioos:station:wmo:42372:1,2016-12-10T11:23:00Z,27.7800,-90.5180,31.9,57.0,11.7,-1.1,'1111122,1111122,1111122' 
ADCP,ioos:station:wmo:42372:1,2016-12-10T12:23:00Z,27.7800,-90.5180,31.9,65.0,18.1,-1.1,'1111122,1111122,1111122' 
ADCP,ioos:station:wmo:42372:1,2016-12-10T12:53:00Z,27.7800,-90.5180,31.9,73.0,17.1,0.5,'1111122,1111122,1111122' 
ADCP,ioos:station:wmo:42372:1,2016-12-10T14:23:00Z,27.7800,-90.5180,32.0,72.0,20.5,-1.2,'1111122,1111122,1111122' 
ADCP,ioos:station:wmo:42372:1,2016-12-10T14:53:00Z,27.7800,-90.5180,31.9,83.0,19.4,0.4,'1111122,1111122,1111122' 
ADCP,ioos:station:wmo:42372:1,2016-12-10T16:23:00Z,27.7800,-90.5180,31.9,88.0,21.4,1.0,'1111122,1111122,1111122' 
ADCP,ioos:station:wmo:42372:1,2016-12-10T17:23:00Z,27.7800,-90.5180,31.8,86.0,19.3,-0.5,'1111122,1111122,1111122' 
ADCP,ioos:station:wmo:42372:1,2016-12-10T18:23:00Z,27.7800,-90.5180,31.8,100.0,23.7,2.1,'1111122,1111122,1111122' 
ADCP,ioos:station:wmo:42372:1,2016-12-10T19:23:00Z,27.7800,-90.5180,31.8,103.0,18.6,2.2,'1111122,1111122,1111122' 
ADCP,ioos:station:wmo:42372:1,2016-12-10T20:23:00Z,27.7800,-90.5180,32.0,111.0,25.6,3.9,'1111122,1111122,1111122' 
ADCP,ioos:station:wmo:42372:1,2016-12-10T21:23:00Z,27.7800,-90.5180,32.0,114.0,20.2,3.3,'1111122,1111122,1111122' 
ADCP,ioos:station:wmo:42372:1,2016-12-10T21:53:00Z,27.7800,-90.5180,31.8,102.0,21.4,-0.6,'1111122,1111122,1111122' 
ADCP,ioos:station:wmo:42372:1,2016-12-10T23:23:00Z,27.7800,-90.5180,32.0,93.0,13.0,-2.6,'1111122,1111122,1111122' 
ADCP,ioos:station:wmo:42372:1,2016-12-11T00:23:00Z,27.7800,-90.5180,31.9,110.0,9.5,-1.3,'1111122,1111122,1111122' 